Location: Observatory
(52.1446°N, 0.4624°W)
Time: 18:50:22
(UTC+00:00)

ISS - Pass Details

Date: 30 November 2021
Orbit: 417 x 422 km, 51.6° (Epoch: 06 December)

Event Time Altitude Azimuth Distance (km) Brightness Sun altitude
Rises 16:51:32 0° 263° (W) 2,376 1.7 -8.5°
Reaches altitude 10° 16:53:38 10° 262° (W) 1,511 0.5 -8.8°
Maximum altitude 16:57:02 82° 176° (S) 432 -3.7 -9.2°
Enters shadow 17:00:05 12° 88° (E) 1,373 -1.7 -9.7°
